W0VI Weather Reports


time (UTC)temp
F
wind
direction
speed
knots
gust
knots
rain 1hr
in
rain 24hr
in
rain mn
in
humidity
%
barometer
mb
20260906191437 80 81 1.7 1.7 0.00 0.00 0.00 75 1018.5
20260906185704 78 53 2.6 4.3 0.00 0.00 0.00 76 1018.5
20260906185203 78 53 2.6 4.3 0.00 0.00 0.00 76 1018.5
20260906184703 78 73 1.7 1.7 0.00 0.00 0.00 76 1018.5
20260906184159 78 112 0.9 0.9 0.00 0.00 0.00 77 1018.3
20260906183654 78 77 0.0 0.9 0.00 0.00 0.00 77 1018.4
20260906183151 78 114 1.7 1.7 0.00 0.00 0.00 76 1018.4
20260906182650 78 70 0.9 0.9 0.00 0.00 0.00 77 1018.5
20260906182146 78 10 0.0 0.0 0.00 0.00 0.00 78 1018.5
20260906181642 78 121 0.9 0.9 0.00 0.00 0.00 78 1018.6
20260906181138 78 197 1.7 2.6 0.00 0.00 0.00 78 1018.7
20260906180632 79 72 0.0 0.0 0.00 0.00 0.00 77 1018.9
20260906180127 79 307 1.7 1.7 0.00 0.00 0.00 77 1018.5
20260906175625 78 84 0.0 0.9 0.00 0.00 0.00 78 1018.5
20260906175121 78 204 0.0 0.9 0.00 0.00 0.00 78 1018.9
20260906174619 78 191 0.9 1.7 0.00 0.00 0.00 78 1018.7
20260906174114 78 190 2.6 2.6 0.00 0.00 0.00 78 1018.6
20260906173608 78 96 1.7 2.6 0.00 0.00 0.00 78 1018.7
20260906173104 78 119 0.9 1.7 0.00 0.00 0.00 77 1018.7
20260906172558 78 109 0.9 0.9 0.00 0.00 0.00 78 1018.7
20260906172054 79 19 0.9 0.9 0.00 0.00 0.00 77 1018.8
20260906171554 78 79 0.9 1.7 0.00 0.00 0.00 78 1018.9
20260906171049 78 196 0.9 1.7 0.00 0.00 0.00 77 1019.0
20260906170545 78 193 2.6 4.3 0.00 0.00 0.00 78 1019.0
20260906170044 76 330 0.9 0.9 0.00 0.00 0.00 81 1019.2
20260906165541 75 97 0.9 1.7 0.00 0.00 0.00 82 1019.1
20260906165036 76 80 0.9 2.6 0.00 0.00 0.00 81 1019.4
20260906164535 77 60 0.9 1.7 0.00 0.00 0.00 80 1019.1
20260906164031 78 97 2.6 2.6 0.00 0.00 0.00 78 1019.1
20260906163526 78 154 0.9 0.9 0.00 0.00 0.00 79 1019.0
20260906163022 78 114 0.9 1.7 0.00 0.00 0.00 77 1019.3
20260906162519 78 143 0.9 0.9 0.00 0.00 0.00 78 1019.4
20260906162014 78 298 1.7 1.7 0.00 0.00 0.00 78 1019.0
20260906161509 79 79 2.6 4.3 0.00 0.00 0.00 76 1019.2
20260906161007 80 169 2.6 4.3 0.00 0.00 0.00 76 1019.3
20260906160501 78 125 0.9 0.9 0.00 0.00 0.00 77 1019.0
20260906155959 78 102 0.9 1.7 0.00 0.00 0.00 79 1019.3
20260906155458 77 201 0.9 0.9 0.00 0.00 0.00 80 1019.3
20260906154954 77 29 0.9 0.9 0.00 0.00 0.00 80 1019.5
20260906154449 77 64 0.0 0.9 0.00 0.00 0.00 79 1019.5
20260906153947 78 54 1.7 1.7 0.00 0.00 0.00 79 1019.4
20260906153446 78 214 0.9 0.9 0.00 0.00 0.00 79 1019.1
20260906152941 78 310 1.7 1.7 0.00 0.00 0.00 79 1019.3
20260906152436 77 85 0.9 0.9 0.00 0.00 0.00 79 1019.4
20260906151935 77 138 2.6 2.6 0.00 0.00 0.00 79 1019.3
20260906151431 77 147 4.3 7.0 0.00 0.00 0.00 79 1019.4
20260906150926 77 237 3.5 6.1 0.00 0.00 0.00 79 1019.5
20260906150420 76 89 1.7 1.7 0.00 0.00 0.00 81 1019.3
20260906145914 77 3 0.0 0.9 0.00 0.00 0.00 81 1019.4
20260906145413 77 108 0.9 1.7 0.00 0.00 0.00 81 1019.3
20260906144908 76 69 0.0 0.9 0.00 0.00 0.00 82 1019.2
20260906144403 75 123 2.6 4.3 0.00 0.00 0.00 83 1019.2
20260906143859 75 37 2.6 4.3 0.00 0.00 0.00 83 1019.1
20260906143354 75 98 0.9 0.9 0.00 0.00 0.00 83 1019.0
20260906142850 76 82 1.7 2.6 0.00 0.00 0.00 81 1019.1
20260906142344 76 87 0.0 0.0 0.00 0.00 0.00 83 1019.2
20260906141844 75 90 0.0 0.9 0.00 0.00 0.00 83 1019.2
20260906141338 76 104 0.9 0.9 0.00 0.00 0.00 82 1019.3
20260906140838 75 74 0.0 0.0 0.00 0.00 0.00 83 1019.1
20260906140333 75 40 0.0 0.0 0.00 0.00 0.00 83 1019.5
20260906135831 75 166 1.7 2.6 0.00 0.00 0.00 82 1019.4
20260906135325 75 141 0.9 1.7 0.00 0.00 0.00 83 1019.1
20260906134821 74 257 0.9 0.9 0.00 0.00 0.00 85 1019.2
20260906134311 73 52 0.9 0.9 0.00 0.00 0.00 86 1019.2
20260906133806 73 106 1.7 1.7 0.00 0.00 0.00 86 1019.2
20260906133301 74 61 0.0 0.9 0.00 0.00 0.00 85 1019.2
20260906132757 74 80 1.7 1.7 0.00 0.00 0.00 85 1019.2
20260906132252 73 86 1.7 2.6 0.00 0.00 0.00 86 1019.1
20260906131747 73 69 0.0 0.9 0.00 0.00 0.00 88 1019.0
20260906131242 72 64 0.0 0.0 0.00 0.00 0.00 90 1018.9
20260906130737 71 75 0.9 0.9 0.00 0.00 0.00 91 1018.8
20260906130232 71 92 1.7 1.7 0.00 0.00 0.00 92 1018.8
20260906125731 71 98 0.9 0.9 0.00 0.00 0.00 94 1018.8
20260906125229 71 85 2.6 4.3 0.00 0.00 0.00 95 1019.0
20260906124724 70 66 0.0 0.0 0.00 0.00 0.00 96 1019.1
20260906124220 70 75 0.0 0.0 0.00 0.00 0.00 96 1018.9
20260906123719 70 71 0.0 0.0 0.00 0.00 0.00 97 1018.8
20260906123214 70 60 0.0 0.0 0.00 0.00 0.00 97 1019.0
20260906122713 70 62 0.0 0.0 0.00 0.00 0.00 97 1018.8
20260906122209 70 60 0.0 0.0 0.00 0.00 0.00 98 1019.0
20260906121705 69 73 0.0 0.0 0.00 0.00 0.00 98 1018.8
20260906121201 69 79 0.0 0.0 0.00 0.00 0.00 98 1019.0
20260906120657 69 81 0.0 0.0 0.00 0.00 0.00 98 1019.1
20260906120153 69 78 0.0 0.9 0.00 0.00 0.00 98 1018.8
20260906115648 69 76 0.9 0.9 0.00 0.00 0.00 98 1018.9
20260906115144 69 72 0.0 0.9 0.00 0.00 0.00 98 1018.5
20260906114643 69 83 0.0 0.0 0.00 0.00 0.00 98 1018.6
20260906114138 69 58 0.0 0.0 0.00 0.00 0.00 98 1018.4
20260906113637 69 66 0.0 0.0 0.00 0.00 0.00 97 1018.4
20260906113132 69 36 0.0 0.0 0.00 0.00 0.00 97 1018.4
20260906112631 69 87 0.0 0.0 0.00 0.00 0.00 97 1018.4
20260906112129 69 84 0.0 0.9 0.00 0.00 0.00 97 1018.6
20260906111628 69 96 1.7 1.7 0.00 0.00 0.00 97 1018.4
20260906111117 69 60 0.0 0.0 0.00 0.00 0.00 97 1018.5
20260906110611 69 110 0.0 0.9 0.00 0.00 0.00 97 1018.7
20260906110106 69 65 0.0 0.0 0.00 0.00 0.00 97 1018.3
20260906105601 69 52 0.0 0.0 0.00 0.00 0.00 97 1018.2
20260906105057 69 44 0.0 0.0 0.00 0.00 0.00 96 1018.2
20260906104556 70 96 0.9 0.9 0.00 0.00 0.00 96 1018.3
20260906104050 70 86 0.0 0.0 0.00 0.00 0.00 96 1018.1
20260906103548 70 90 0.0 0.9 0.00 0.00 0.00 96 1018.1
20260906103043 70 52 0.0 0.0 0.00 0.00 0.00 96 1018.2
20260906102537 70 66 0.0 0.0 0.00 0.00 0.00 95 1018.1
20260906102032 70 71 0.0 0.0 0.00 0.00 0.00 95 1018.2
20260906101527 70 56 0.0 0.0 0.00 0.00 0.00 95 1018.4
20260906101022 70 44 0.0 0.0 0.00 0.00 0.00 95 1018.3
20260906100518 70 65 0.0 0.0 0.00 0.00 0.00 95 1018.1
20260906100013 70 3 0.0 0.0 0.00 0.00 0.00 95 1018.2
20260906095507 70 33 0.0 0.0 0.00 0.00 0.00 95 1018.2
20260906095003 70 90 0.0 0.0 0.00 0.00 0.00 95 1018.1
20260906094501 70 55 0.0 0.0 0.00 0.00 0.00 95 1017.8
20260906093958 70 62 0.0 0.0 0.00 0.00 0.00 95 1017.7
20260906093454 70 231 3.5 4.3 0.00 0.00 0.00 96 1017.6
20260906092954 70 35 0.0 0.9 0.00 0.00 0.00 96 1017.5
20260906092453 70 59 1.7 2.6 0.00 0.00 0.00 96 1017.4
20260906091948 69 32 0.0 0.0 0.00 0.00 0.00 96 1017.4
20260906091444 70 39 0.0 0.0 0.00 0.00 0.00 95 1017.4
20260906090941 70 35 0.0 0.0 0.00 0.00 0.00 95 1017.4
20260906090436 70 26 0.0 0.0 0.00 0.00 0.00 95 1017.5
20260906085936 70 30 0.0 0.0 0.00 0.00 0.00 95 1017.6
20260906085435 70 34 0.0 0.0 0.00 0.00 0.00 95 1017.4
20260906084934 70 34 0.0 0.0 0.00 0.00 0.00 95 1017.7
20260906084429 70 35 0.0 0.0 0.00 0.00 0.00 95 1017.7
20260906083928 70 34 0.0 0.0 0.00 0.00 0.00 95 1017.6
20260906083424 70 35 0.0 0.0 0.00 0.00 0.00 95 1017.5
20260906082923 70 37 0.0 0.0 0.00 0.00 0.00 95 1017.4
20260906082419 70 31 0.0 0.0 0.00 0.00 0.00 94 1017.5
20260906081914 70 27 0.0 0.0 0.00 0.00 0.00 94 1017.5
20260906081409 70 30 0.0 0.0 0.00 0.00 0.00 94 1017.4
20260906080906 71 26 0.0 0.0 0.00 0.00 0.00 94 1017.5
20260906080402 71 26 0.0 0.0 0.00 0.00 0.00 93 1017.5
20260906075901 71 26 0.0 0.0 0.00 0.00 0.00 93 1017.3
20260906075356 71 37 0.0 0.9 0.00 0.00 0.00 93 1017.4
20260906074852 71 32 0.0 0.9 0.00 0.00 0.00 93 1017.4
20260906074345 71 22 0.0 0.0 0.00 0.00 0.00 92 1017.3
20260906073844 71 34 0.0 0.0 0.00 0.00 0.00 92 1017.6
20260906073340 72 37 0.0 0.0 0.00 0.00 0.00 92 1017.6
20260906072837 72 35 0.0 0.9 0.00 0.00 0.00 92 1017.2
20260906072331 72 39 0.0 0.0 0.00 0.00 0.00 92 1017.5
20260906071828 72 34 0.0 0.0 0.00 0.00 0.00 91 1017.4
20260906071327 72 34 0.0 0.0 0.00 0.00 0.00 91 1017.8
20260906070824 72 31 0.0 0.0 0.00 0.00 0.00 91 1017.8
20260906070320 72 35 0.0 0.0 0.00 0.00 0.00 90 1017.7
20260906065820 73 34 0.0 0.0 0.00 0.00 0.00 90 1017.7
20260906065315 73 35 0.0 0.0 0.00 0.00 0.00 89 1017.8
20260906064810 73 35 0.0 0.0 0.00 0.00 0.00 89 1017.9
20260906064306 73 46 0.9 0.9 0.00 0.00 0.00 89 1017.7
20260906063801 73 52 0.9 1.7 0.00 0.00 0.00 89 1017.8
20260906063256 73 35 0.0 0.0 0.00 0.00 0.00 89 1018.1
20260906062751 73 35 0.0 0.0 0.00 0.00 0.00 88 1017.9
20260906062251 73 35 0.0 0.0 0.00 0.00 0.00 88 1017.8
20260906061746 74 34 0.0 0.0 0.00 0.00 0.00 88 1018.0
20260906061243 74 45 0.9 1.7 0.00 0.00 0.00 88 1017.7
20260906060737 74 40 0.9 0.9 0.00 0.00 0.00 88 1017.9
20260906060235 74 33 0.0 0.0 0.00 0.00 0.00 88 1017.9
20260906055731 74 34 0.0 0.0 0.00 0.00 0.00 88 1017.7
20260906055226 74 33 0.0 0.0 0.00 0.00 0.00 88 1017.7
20260906054721 73 32 0.0 0.0 0.00 0.00 0.00 88 1017.6
20260906054216 73 36 0.9 0.9 0.00 0.00 0.00 89 1017.9
20260906053713 73 32 0.0 0.0 0.00 0.00 0.00 89 1017.8
20260906053208 73 27 0.0 0.0 0.00 0.00 0.00 88 1017.9
20260906052703 73 30 0.0 0.0 0.00 0.00 0.00 88 1017.8
20260906052159 73 28 0.0 0.0 0.00 0.00 0.00 89 1017.6
20260906051656 73 26 0.0 0.0 0.00 0.00 0.00 88 1017.6
20260906051155 73 29 0.9 0.9 0.00 0.00 0.00 88 1017.8
20260906050651 74 34 0.9 0.9 0.00 0.00 0.00 88 1017.8
20260906050146 74 27 0.0 0.0 0.00 0.00 0.00 87 1017.9
20260906045644 74 29 0.0 0.0 0.00 0.00 0.00 87 1017.8
20260906045140 74 28 0.0 0.0 0.00 0.00 0.00 88 1017.8
20260906044636 74 353 0.0 0.0 0.00 0.00 0.00 88 1018.0
20260906044131 74 348 0.0 0.0 0.00 0.00 0.00 89 1018.1
20260906043627 74 350 0.0 0.0 0.00 0.00 0.00 89 1018.1
20260906043122 74 351 0.0 0.0 0.00 0.00 0.00 88 1018.0
20260906042621 74 58 0.0 0.0 0.00 0.00 0.00 88 1017.9
20260906042115 74 55 0.0 0.0 0.00 0.00 0.00 88 1018.0
20260906041612 74 67 0.0 0.0 0.00 0.00 0.00 87 1018.1
20260906041106 74 59 0.0 0.0 0.00 0.00 0.00 87 1018.0
20260906040602 74 73 0.9 0.9 0.00 0.00 0.00 88 1018.3
20260906040057 74 50 0.0 0.0 0.00 0.00 0.00 87 1018.3
20260906035552 74 54 0.0 0.0 0.00 0.00 0.00 87 1018.2
20260906035048 75 86 0.0 0.0 0.00 0.00 0.00 86 1018.1
20260906034548 75 79 0.9 0.9 0.00 0.00 0.00 85 1018.0
20260906034043 75 84 0.0 0.0 0.00 0.00 0.00 85 1018.1
20260906033538 75 93 0.9 0.9 0.00 0.00 0.00 85 1018.2
20260906033033 75 93 1.7 1.7 0.00 0.00 0.00 84 1018.2
20260906032530 76 64 0.0 0.0 0.00 0.00 0.00 84 1018.2
20260906032030 76 76 0.0 0.0 0.00 0.00 0.00 84 1018.3
20260906031526 76 57 0.0 0.0 0.00 0.00 0.00 84 1018.2
20260906031021 76 60 0.9 0.9 0.00 0.00 0.00 84 1018.2
20260906030520 76 47 0.0 0.0 0.00 0.00 0.00 83 1018.4
20260906030020 77 65 0.0 0.0 0.00 0.00 0.00 82 1018.3
20260906025520 77 79 0.0 0.9 0.00 0.00 0.00 82 1018.1
20260906025018 77 67 0.0 0.0 0.00 0.00 0.00 81 1018.0
20260906024513 77 65 0.0 0.0 0.00 0.00 0.00 81 1018.3
20260906024008 77 213 0.0 0.0 0.00 0.00 0.00 81 1018.3
20260906023504 77 307 0.9 0.9 0.00 0.00 0.00 81 1018.1
20260906022959 77 69 0.0 0.0 0.00 0.00 0.00 81 1018.4
20260906022454 77 51 0.0 0.0 0.00 0.00 0.00 81 1018.0
20260906021949 78 51 0.0 0.9 0.00 0.00 0.00 80 1017.7
20260906021444 78 319 0.0 0.9 0.00 0.00 0.00 80 1017.7
20260906020944 78 52 0.0 0.9 0.00 0.00 0.00 80 1017.8
20260906020439 78 72 0.0 0.0 0.00 0.00 0.00 79 1017.5
20260906015932 78 140 0.9 0.9 0.00 0.00 0.00 79 1017.3
20260906015426 78 78 0.0 0.0 0.00 0.00 0.00 76 1017.2
20260906014920 78 55 0.0 0.9 0.00 0.00 0.00 75 1017.2
20260906014420 78 82 0.9 0.9 0.00 0.00 0.00 75 1016.7
20260906013917 78 63 0.0 0.9 0.00 0.00 0.00 75 1016.6
20260906013412 78 72 1.7 1.7 0.00 0.00 0.00 75 1016.3
20260906012908 78 80 0.9 0.9 0.00 0.00 0.00 74 1016.2
20260906012408 78 60 0.9 0.9 0.00 0.00 0.00 74 1016.3
20260906011907 79 77 0.9 0.9 0.00 0.00 0.00 74 1016.1
20260906011402 79 99 0.9 1.7 0.00 0.00 0.00 74 1016.0
20260906010858 79 73 0.9 0.9 0.00 0.00 0.00 73 1015.7
20260906010353 79 76 1.7 2.6 0.00 0.00 0.00 73 1015.6
20260906005849 80 75 0.9 0.9 0.00 0.00 0.00 73 1015.7
20260906005348 80 71 0.9 0.9 0.00 0.00 0.00 72 1016.0
20260906004847 80 105 1.7 1.7 0.00 0.00 0.00 72 1015.6
20260906004347 80 94 1.7 1.7 0.00 0.00 0.00 71 1015.7
20260906003842 80 85 0.9 0.9 0.00 0.00 0.00 70 1015.6
20260906003338 80 79 0.9 1.7 0.00 0.00 0.00 70 1015.4
20260906002833 81 65 0.0 0.9 0.00 0.00 0.00 69 1015.3
20260906002332 81 58 1.7 2.6 0.00 0.00 0.00 68 1015.3
20260906001828 81 96 5.2 6.1 0.00 0.00 0.00 68 1015.1
20260906001323 82 101 1.7 2.6 0.00 0.00 0.00 67 1015.1
20260906000818 82 30 1.7 1.7 0.00 0.00 0.00 66 1015.1
20260906000313 82 128 1.7 2.6 0.00 0.00 0.00 66 1015.3
20260905235808 82 89 2.6 2.6 0.00 0.00 0.00 66 1015.2
20260905235306 82 92 2.6 2.6 0.00 0.00 0.00 66 1015.4
20260905234759 83 118 2.6 4.3 0.00 0.00 0.00 65 1015.7
20260905234253 83 61 0.9 0.9 0.00 0.00 0.00 65 1015.7
20260905233749 83 344 2.6 2.6 0.00 0.00 0.00 65 1015.6
20260905233248 83 54 1.7 2.6 0.00 0.00 0.00 65 1015.4
20260905232748 83 95 6.1 7.0 0.00 0.00 0.00 65 1015.2
20260905232244 84 59 0.9 0.9 0.00 0.00 0.00 64 1015.5
20260905231739 84 75 0.9 1.7 0.00 0.00 0.00 65 1015.2
20260905231234 83 35 0.0 0.0 0.00 0.00 0.00 65 1015.1
20260905230731 84 333 0.9 1.7 0.00 0.00 0.00 64 1015.2
20260905230228 84 37 0.9 1.7 0.00 0.00 0.00 65 1015.1
20260905225727 84 59 0.0 0.9 0.00 0.00 0.00 65 1015.1
20260905225223 84 92 1.7 1.7 0.00 0.00 0.00 65 1015.0
20260905224722 84 80 6.1 8.7 0.00 0.00 0.00 64 1015.0
20260905224217 84 18 1.7 4.3 0.00 0.00 0.00 64 1015.1
20260905223714 84 86 0.9 1.7 0.00 0.00 0.00 64 1015.0
20260905223210 85 120 2.6 4.3 0.00 0.00 0.00 64 1014.9
20260905222705 85 70 3.5 7.8 0.00 0.00 0.00 63 1015.0
20260905222205 85 83 1.7 1.7 0.00 0.00 0.00 63 1014.8
20260905221701 85 73 0.9 1.7 0.00 0.00 0.00 63 1014.8
20260905221157 85 78 2.6 4.3 0.00 0.00 0.00 62 1015.2
20260905220653 85 79 2.6 2.6 0.00 0.00 0.00 63 1015.0
20260905220149 85 62 0.9 1.7 0.00 0.00 0.00 62 1015.2
20260905215648 85 46 1.7 1.7 0.00 0.00 0.00 62 1015.3
20260905215144 85 104 1.7 2.6 0.00 0.00 0.00 62 1015.1
20260905214640 85 76 0.9 0.9 0.00 0.00 0.00 62 1015.2
20260905214135 85 16 1.7 2.6 0.00 0.00 0.00 62 1015.4
20260905213630 85 88 0.0 0.9 0.00 0.00 0.00 63 1015.3
20260905213125 84 77 4.3 5.2 0.00 0.00 0.00 64 1015.2
20260905212620 84 48 1.7 2.6 0.00 0.00 0.00 65 1014.9
20260905212120 84 73 2.6 2.6 0.00 0.00 0.00 63 1015.1
20260905211615 85 81 1.7 1.7 0.00 0.00 0.00 64 1015.2
20260905211110 84 6 0.9 1.7 0.00 0.00 0.00 65 1015.4
20260905210607 84 62 0.9 0.9 0.00 0.00 0.00 67 1015.5
20260905205601 84 326 2.6 2.6 0.00 0.00 0.00 66 1016.0
20260905205054 84 65 2.6 2.6 0.00 0.00 0.00 66 1016.0
20260905204550 84 98 4.3 6.1 0.00 0.00 0.00 66 1015.9
20260905204045 84 46 4.3 6.1 0.00 0.00 0.00 67 1016.2
20260905203544 84 146 1.7 1.7 0.00 0.00 0.00 68 1016.2
20260905203040 84 95 2.6 2.6 0.00 0.00 0.00 67 1016.1
20260905202535 84 330 0.9 1.7 0.00 0.00 0.00 67 1016.1
20260905202030 83 89 1.7 2.6 0.00 0.00 0.00 69 1016.3
20260905201526 83 69 3.5 6.1 0.00 0.00 0.00 68 1016.7
20260905201025 83 49 0.9 1.7 0.00 0.00 0.00 69 1016.6
20260905200521 84 64 1.7 1.7 0.00 0.00 0.00 68 1016.9
20260905200020 83 114 1.7 1.7 0.00 0.00 0.00 69 1017.0
20260905195515 82 38 1.7 2.6 0.00 0.00 0.00 70 1017.0
20260905195010 83 346 1.7 1.7 0.00 0.00 0.00 70 1017.0
20260905194510 82 41 3.5 6.1 0.00 0.00 0.00 71 1017.0
20260905194010 82 57 0.9 1.7 0.00 0.00 0.00 72 1017.2
20260905193510 83 33 0.9 1.7 0.00 0.00 0.00 71 1017.4
20260905193005 82 98 0.9 1.7 0.00 0.00 0.00 71 1017.4
20260905192500 83 127 0.9 1.7 0.00 0.00 0.00 70 1017.4
20260905191956 82 6 0.9 0.9 0.00 0.00 0.00 72 1017.4